Weather in Danilov

Russia / Yaroslavl Oblast     58˚11′16″N   40˚10′29″E
temp.,
°C
wind,
m/s
gust,
m/s
humid.,
%
clouds,
%
prec.,
mm/h
press.,
hPa
HPBL,
m
17 january, sun
sun1700:00−21˚n41095100 0.0 1008391
03:00−23˚n41096100 0.0 1009314
06:00−24˚nnw3898100 0.0 1010242
09:00−25˚nnw369889 0.0 1012121
12:00−20˚nnw249633 0.0 1015173
15:00−19˚nw249632 0.0 1015113
18:00−22˚nw229636 0.0 101624
21:00−23˚w129347 0.0 101820
18 january, mon
mon1800:00−23˚wsw229212 0.0 101820
03:00−22˚wsw229730 0.0 101820
06:00−21˚wsw229979 0.0 101720
09:00−21˚ssw259884 0.0 1018100
12:00−17˚wsw239597 0.1 1018191
15:00−16˚wsw129796 0.1 101823
18:00−19˚ssw229875 0.0 101722
21:00−18˚wsw129784 0.1 101831
19 january, tue
tue1900:00−20˚w119929 0.0 101820
03:00−20˚w1110054 0.0 101820
06:00−19˚sw119895 0.1 101720
09:00−19˚wsw119888 0.1 101720
12:00−15˚wnw129391 0.1 1016163
15:00−15˚sw119794 0.1 101520
18:00−17˚w129799 0.1 101520
21:00−16˚wnw229795 0.1 101549
20 january, wed
wed2000:00−17˚wnw229883 0.0 101523
03:00−17˚w229890 0.1 101548
06:00−14˚wnw269693 0.1 1015162
09:00−14˚wnw379684 0.1 1015180
12:00−11˚wnw369486 0.1 1016258
15:00−12˚w379589 0.1 1016266
18:00−15˚w389798 0.0 1017204
21:00−15˚w389797 0.1 1017200
21 january, thu
thu2100:00−15˚w379797 0.0 1017171
03:00−16˚w259898 0.1 1018112
06:00−17˚wsw239898 0.1 101783
09:00−18˚wsw229891 0.1 101721
12:00−14˚s129599 0.0 1016118
15:00−13˚se2494100 0.0 1014187
18:00−13˚se2596100 0.1 1014203
21:00−14˚ese2397100 0.3 1014104